Aérodrome :
LOGIN :

S'inscrire | Disclaimer

   EN    FR    IT 

 










Légende :    VFR   VFR Marginal   IFR   IFR Intensif   IFR Très Intensif
Visi : 
Plafond : 
>= 8 km
>= 3000ft
5 à 8 km
1000 à 3000 ft
1500m à 5 km
500 à 1000 ft
800 à 1500m
200 à 500 ft
< 800m
< 200 ft
Symboles :   Orages  Brouillard  Fortes neiges  Fortes précipitations  Vent > 20 kt
SIGMETs :   Divers  Orages  Givrage  Turbulence  Onde Orograph.  Cendres Volcan.







- Altitude de l'aérodrome : 112 ft
- Code IATA : SVQ


LEZL - Sevilla San Pablo

DERNIER METAR :
  • 220700Z 03005KT CAVOK 16/15 Q1019 NOSIG

METARs EXPIRÉS :
  • 220630Z 05005KT CAVOK 16/15 Q1019 NOSIG
  • 220600Z 05005KT CAVOK 16/15 Q1019 NOSIG
  • 220530Z 03005KT CAVOK 16/15 Q1019 NOSIG
  • 220500Z 03005KT CAVOK 16/15 Q1019 NOSIG
  • 220430Z 03004KT CAVOK 17/16 Q1019 NOSIG

TAF TAF LEZL
Valide du 22 à 03h jusqu'au 23 à 03h UTC


220200Z 2203/2303 04005KT CAVOK TX25/2215Z TN14/2206Z
PROB40
TEMPO 2203/2208 4000 BR
Pas de NOTAMs connus pour ce terrain.



MET'MAP, la Météo Aéronautique d'un coup d'oeil ! - Copyright ORBIFLY Décembre 2007 - Disclaimer

ORBIFLY MET'MAP TEAM :

Programmation & Développement : Alexandra Zaïnal
Conception & Développement : Baudouin d'Aumeries
Co-Programmation & Développement : Marc-Olivier Méhu
Soutien technique & logistique : Manuel Goepfert

Contact : metmap@orbifly.com




SOURCES & CREDITS :

   NOAA